Presure
191 177 167 160 156 152 176 181 182 177 161 173 166 141 177 174 153 171 178 158 159 136 175 147 153 151 161 157 161 149 160 164 164 141 158 167 157 163 151 152 169 169 173
183 189 176 167 161 175 150 171 188 180 177 148 178 169 164 168 168 165 170 178 157 156 168 172 159 151 164 169 167 157 160 158 168 165 168 161 172 150 173 173 172 165 181
179 193 144 175 168 163 172 169 176 192 174 178 167 183 185 180 173 183 188 179 165 164 162 166 181 173 167 176 180 171 151 168 173 138 143 152 152 175 180 174 139 166 141
182 185 207 200 174 177 100 163 187 190 175 163 164 172 178 185 189 181 177 156 182 168 183 178 167 163 182 186 188 193 158 160 137 142 166 142 175 166 165 143 142 145 163
190 185 190 182 207 173 171 165 161 188 164 181 173 171 177 177 167 166 179 185 186 165 167 171 173 174 181 180 183 200 203 201 196 143 184 182 171 144 149 173 169 195 160
193 188 186 185 180 184 191 174 170 173 173 172 186 184 172 182 188 179 170 170 175 165 173 167 180 186 178 179 201 193 196 157 145 187 193 137 146 149 148 143 182 168 184
189 182 188 187 195 220 182 196 168 167 162 160 183 163 161 178 178 163 170 180 187 204 197 184 179 139 174 176 189 163 184 180 142 149 160 197 165 171 177 194 159 195 198
216 202 162 185 186 157 185 214 208 179 178 164 168 168 161 162 155 163 151 161 160 177 185 174 183 210 196 193 164 162 162 140 194 188 184 153 155 192 163 160 202 161 185
191 207 199 170 176 183 189 189 211 211 182 171 175 193 166 176 161 158 161 165 162 164 163 168 170 170 179 178 186 188 191 197 193 211 203 167 168 203 216 213 221 247 197
282 214 188 209 171 178 187 198 206 203 191 186 175 174 174 176 179 179 177 166 163 172 170 169 167 167 168 161 171 177 174 184 201 203 224 210 171 167 174 171 174 179 180
268 272 186 222 202 185 172 177 204 220 211 212 211 186 176 163 170 169 169 188 172 174 160 178 178 177 176 176 177 168 170 169 171 169 172 180 164 198 198 182 181 198 189
288 150 278 288 287 193 192 174 201 212 223 217 196 176 180 181 181 182 163 172 177 188 198 190 175 162 186 186 184 178 178 177 179 178 177 176 180 147 181 181 184 191 205
278 291 309 279 294 308 313 217 192 188 199 234 235 219 166 165 172 175 194 194 191 184 133 186 179 179 180 189 194 195 171 147 193 171 180 179 183 230 192 154 217 215 220
283 288 270 293 292 287 291 302 275 214 205 200 191 182 183 179 187 185 186 182 196 196 181 177 178 177 176 179 159 161 180 182 181 185 205 215 209 215 222 230 226 164 235
262 281 288 290 289 288 286 277 285 300 274 204 203 202 199 199 196 195 192 196 203 186 154 208 211 211 209 184 203 213 206 213 208 212 228 228 232 237 239 232 239 238 243
277 283 281 290 263 290 292 263 263 308 300 296 305 300 296 280 241 237 236 238 235 227 218 215 216 132 208 209 214 166 236 241 237 237 237 230 237 239 244 245 247 249 259
286 272 277 281 279 275 274 276 272 256 288 289 292 284 285 285 272 271 262 257 255 259 249 241 234 235 237 252 238 240 242 241 242 242 248 251 249 259 283 358 307 348 300
272 270 274 266 265 263 258 257 258 260 265 264 263 268 280 289 291 286 291 299 280 278 263 259 253 249 250 248 225 251 252 255 261 281 285 280 295 290 295 311 282 324 308
267 268 262 260 268 271 270 268 267 266 253 253 250 253 252 256 253 252 254 262 276 283 253 296 272 293 323 276 277 291 280 280 275 329 268 264 284 291 299 300 311 306 252
279 271 273 275 277 275 271 264 264 262 290 280 271 288 281 289 279 284 267 300 301 302 304 305 305 303 284 275 279 302 267 263 281 322 317 310 326 327 327 330 251 256 286
271 260 260 269 274 271 273 274 279 267 272 267 269 278 268 275 269 282 282 283 316 312 323 317 307 298 281 284 288 302 302 302 295 305 309 311 311 320 339 329 326 332 319
274 275 271 265 266 263 261 260 261 265 270 284 287 276 266 274 281 292 296 304 296 297 300 301 303 295 288 281 285 283 280 281 289 289 294 309 307 328 319 307 300 296 289
287 276 267 271 287 295 286 277 282 288 279 282 307 313 312 302 302 299 292 285 279 279 297 285 284 280 284 277 280 283 276 276 271 268 302 294 280 321 299 288 286 274 279
353 310 289 278 270 265 265 268 268 266 266 268 274 275 275 273 276 274 269 270 273 273 267 280 275 274 266 272 271 264 258 260 262 257 287 288 278 278 297 291 282 275 272
311 328 340 305 287 277 269 265 260 258 257 254 257 261 261 263 272 273 269 274 276 274 273 273 267 267 261 264 271 279 278 260 254 253 281 280 266 274 266 272 276 267 272
322 305 308 321 317 291 283 276 268 265 261 257 255 254 256 256 255 253 255 259 255 272 278 271 269 266 267 273 280 283 273 264 255 259 265 262 269 262 261 254 251 259 252
Wind_Speed
95 94 94 92 89 81 99 102 103 110 87 104 98 66 103 99 76 93 97 79 81 66 93 74 85 79 90 89 93 71 90 93 92 60 87 93 79 88 68 69 96 97 103
96 98 101 96 90 100 82 94 107 106 105 75 106 94 90 93 94 89 95 94 80 78 92 96 89 80 96 101 100 84 90 83 94 91 93 90 100 73 104 101 95 89 100
96 100 56 100 96 92 94 96 99 103 100 106 96 105 105 106 103 106 103 103 92 94 93 93 100 100 99 104 103 101 81 92 96 67 69 81 81 101 101 99 66 84 69
100 102 103 101 94 99 44 89 101 104 100 96 94 100 107 109 103 99 103 83 102 96 104 98 94 89 101 103 103 106 79 80 66 68 92 68 96 89 90 72 70 73 84
105 102 103 103 106 93 93 91 86 104 90 100 98 98 106 104 91 88 99 102 102 93 96 98 97 94 98 98 98 98 97 99 101 70 102 101 91 74 77 93 90 101 85
102 102 101 105 103 97 104 96 93 95 87 87 103 104 99 106 108 99 98 98 100 96 104 95 105 103 96 95 105 98 96 79 74 95 97 75 78 81 80 75 97 88 99
93 92 102 102 104 108 103 105 93 92 88 82 94 89 92 106 109 94 102 109 107 112 110 105 98 66 91 91 97 79 90 87 73 76 81 105 83 84 93 101 82 105 102
103 104 84 101 100 84 103 110 111 101 100 93 95 96 93 98 92 97 90 94 95 107 107 103 108 112 108 104 83 82 81 67 105 101 96 78 80 104 87 85 109 85 98
99 101 104 94 96 102 104 104 109 113 102 98 102 109 93 99 94 95 99 100 97 97 96 100 101 96 101 98 103 104 106 111 105 114 109 88 90 108 110 108 112 110 100
86 99 98 107 97 99 103 107 108 110 108 107 103 104 103 102 104 105 106 99 96 103 101 101 97 97 96 91 98 102 99 106 113 112 118 108 92 91 95 95 96 97 97
81 84 82 110 107 101 100 102 110 118 115 117 118 112 106 96 103 103 103 116 107 108 93 108 109 109 107 104 105 99 100 100 102 99 102 105 93 103 105 101 101 102 102
79 70 81 82 86 107 107 99 110 112 115 117 107 105 109 111 112 112 103 110 114 120 122 118 107 98 115 114 112 109 109 109 111 110 108 107 107 75 106 103 108 108 107
75 75 70 79 77 75 77 111 110 110 110 113 115 112 99 100 103 108 119 121 121 111 70 118 113 112 112 116 118 117 108 78 115 104 111 111 111 115 112 80 105 105 106
67 67 72 70 69 71 73 73 98 113 112 112 112 109 111 110 116 117 118 113 121 122 117 114 115 112 112 113 93 95 113 114 113 114 112 110 113 110 110 111 108 79 106
67 64 64 63 65 68 72 80 80 76 91 113 113 114 114 115 116 117 118 121 122 121 91 122 121 120 120 119 117 116 117 116 117 116 115 112 112 111 110 107 107 105 106
64 64 66 66 76 66 66 83 86 64 70 75 74 81 84 99 120 121 121 120 121 121 121 121 121 61 120 119 118 97 118 118 118 117 116 112 112 110 110 109 108 106 104
63 65 67 67 68 69 71 72 76 86 71 73 76 83 84 87 97 101 107 111 113 113 118 120 120 119 118 114 116 116 117 116 116 115 113 111 110 106 99 67 86 72 85
64 67 68 71 72 74 75 75 77 79 78 79 83 84 81 80 81 85 83 81 92 95 106 108 110 112 112 112 103 111 112 112 110 100 95 92 83 84 81 74 82 67 70
68 70 71 73 74 74 74 75 76 77 83 83 84 85 85 85 90 94 95 92 85 83 99 76 90 80 64 90 89 84 89 88 93 61 91 92 80 76 73 71 67 64 78
70 70 72 74 75 75 74 73 73 77 76 71 70 70 66 63 68 70 85 61 63 64 64 64 66 67 78 82 79 61 89 89 75 48 50 55 49 50 54 53 76 71 60
67 69 71 73 76 74 73 73 72 72 72 73 70 66 70 71 78 64 66 67 53 52 50 53 57 61 69 66 62 49 47 46 51 45 45 47 47 46 39 34 36 31 34
72 73 74 76 78 78 76 77 76 74 75 77 74 71 73 69 67 65 60 52 51 50 48 47 44 46 48 52 49 48 48 48 44 45 44 35 33 32 30 28 27 30 33
77 78 77 77 75 75 76 76 76 70 68 65 60 60 61 60 58 56 53 52 52 51 42 47 48 48 45 48 46 44 44 43 42 43 33 30 36 26 28 30 30 33 29
58 76 81 81 81 80 78 73 73 71 69 66 63 60 58 57 55 55 56 55 54 52 52 48 50 48 48 48 44 48 48 43 41 40 35 28 27 23 20 30 32 35 34
47 47 56 77 84 83 82 79 77 76 74 71 69 65 62 58 56 56 55 54 55 53 53 53 52 50 51 49 49 47 44 46 43 42 33 30 31 25 26 20 20 24 28
48 53 54 53 65 81 84 83 80 79 78 76 74 71 67 64 61 59 57 55 55 51 52 53 51 50 50 47 45 40 42 42 41 38 33 32 30 29 29 29 30 27 30
Wind_Direction
223 223 226 233 238 241 233 232 236 240 250 245 250 258 254 256 263 261 262 266 267 270 267 273 273 276 276 278 277 283 285 286 286 295 291 296 300 302 300 302 301 304 303
226 224 225 229 236 234 243 238 233 240 244 257 248 256 258 261 261 265 265 264 269 271 268 267 273 275 275 274 275 282 282 286 285 291 293 293 296 297 295 297 300 300 302
227 228 234 229 232 238 236 239 240 237 243 245 253 254 255 257 260 260 261 261 269 270 271 272 268 271 275 275 276 277 282 285 288 289 291 292 294 294 297 298 298 299 300
226 228 230 233 234 233 254 242 240 239 241 246 249 249 253 256 257 258 259 267 266 269 269 270 270 272 273 273 275 274 285 288 288 292 287 293 291 292 295 296 298 300 299
224 227 228 234 235 239 240 242 247 243 250 246 249 251 253 258 261 263 262 263 263 268 270 270 270 272 273 275 277 277 279 279 280 290 283 286 289 293 293 294 294 297 299
227 229 230 231 236 241 239 241 245 245 242 249 248 251 257 258 259 262 264 267 267 267 270 272 273 274 275 276 277 279 279 282 283 283 286 291 291 290 292 294 295 296 298
229 234 233 233 233 233 242 242 250 251 255 254 249 255 258 255 258 265 264 264 267 267 269 272 274 275 278 280 283 280 284 285 282 282 285 290 287 289 292 294 294 294 296
228 229 241 238 238 243 240 237 240 247 248 253 252 251 256 257 263 262 269 268 269 266 267 271 271 273 278 279 283 283 284 279 284 286 287 287 287 291 292 293 291 296 293
233 232 232 242 242 241 241 242 242 243 248 252 255 255 254 253 257 261 262 264 267 269 271 271 273 277 277 279 278 280 282 283 283 283 284 288 288 289 289 290 291 291 292
234 234 236 235 242 244 243 242 244 244 246 249 252 255 258 259 260 260 262 267 270 269 271 274 277 278 281 284 284 284 286 285 284 284 283 285 289 289 290 290 291 292 293
240 239 241 236 238 241 246 248 241 242 244 245 246 252 257 263 262 265 267 264 268 269 274 271 273 275 277 278 280 283 284 286 287 287 287 287 288 288 287 290 291 290 289
249 243 245 248 244 241 242 247 241 241 242 244 249 255 255 256 258 259 268 267 267 266 265 269 274 279 272 275 277 279 281 281 282 283 285 287 287 292 288 290 288 287 286
247 250 252 249 251 254 254 242 244 245 245 246 246 248 261 263 262 263 258 260 262 264 272 268 272 274 275 273 273 274 281 279 276 280 281 283 285 286 284 285 286 287 288
249 251 251 255 255 253 252 253 246 245 247 248 249 254 255 257 255 257 259 261 260 263 269 271 271 273 275 275 277 277 277 278 279 280 279 278 278 282 284 286 286 287 289
247 253 254 255 255 255 253 250 252 253 252 250 251 252 253 254 256 257 258 259 259 264 272 263 264 265 266 271 270 271 274 274 275 276 278 280 282 283 284 283 286 288 290
252 255 255 259 251 258 258 251 251 260 254 253 256 255 255 257 256 258 260 261 262 262 263 265 266 276 268 270 271 279 275 278 278 280 280 281 282 282 283 285 286 286 284
255 255 256 257 257 256 257 257 256 252 258 259 259 256 256 256 257 258 260 261 261 262 263 265 266 268 269 271 271 273 274 275 276 278 280 281 281 281 279 274 280 274 278
254 255 255 256 257 257 257 256 257 256 257 257 258 259 261 262 263 263 263 265 263 262 263 265 266 267 269 270 272 273 274 275 276 275 276 278 279 279 279 277 280 277 277
255 255 256 256 257 257 259 260 261 262 260 258 257 259 259 261 260 259 258 260 264 266 264 267 267 268 275 269 271 270 271 274 274 279 276 278 279 278 277 277 276 275 280
256 258 258 258 260 261 261 261 262 262 269 268 264 268 266 269 262 261 262 266 267 266 267 268 269 271 268 270 273 277 272 275 278 280 279 278 280 279 278 280 279 279 276
256 251 253 258 259 260 262 263 265 261 263 259 259 262 258 262 260 264 265 266 272 269 266 266 266 269 269 272 274 277 278 279 280 282 283 281 281 282 277 272 270 262 267
256 256 254 253 254 253 253 253 254 257 260 264 264 259 256 260 264 266 265 266 267 268 267 264 262 264 269 272 274 275 277 281 284 285 284 282 288 277 267 271 272 271 270
258 257 255 256 259 260 258 258 260 261 260 262 265 264 263 262 262 261 261 262 263 265 263 263 263 265 269 269 273 275 274 279 283 285 283 274 279 263 259 262 261 269 267
269 259 257 255 254 254 254 254 256 257 258 259 260 259 258 258 259 261 262 264 265 266 267 261 263 266 268 270 271 269 271 275 279 281 278 271 276 281 274 252 254 256 257
274 272 267 257 255 253 253 253 253 255 256 256 258 257 257 257 258 258 260 262 264 265 264 263 266 267 269 272 272 272 265 271 274 277 275 269 273 279 273 270 272 271 271
281 265 265 262 256 254 254 253 251 252 253 254 254 256 256 256 255 256 258 260 261 263 262 262 264 266 269 270 268 263 259 263 269 275 273 275 274 274 274 275 278 279 277